TimePST,TemperatureF,Dew PointF,Humidity,Sea Level PressureIn,VisibilityMPH,Wind Direction,Wind SpeedMPH,Gust SpeedMPH,PrecipitationIn,Events,Conditions,WindDirDegrees,DateUTC
12:53 AM,57.0,55.9,96,30.19,10.0,Calm,Calm,-,N/A,,Overcast,0,2012-11-04 07:53:00
1:53 AM,57.0,55.9,96,30.20,7.0,Calm,Calm,-,0.00,Rain,Light Rain,0,2012-11-04 08:53:00
1:53 AM,55.9,55.9,100,30.21,9.0,Calm,Calm,-,0.00,,Overcast,0,2012-11-04 09:53:00
2:53 AM,57.0,55.9,96,30.21,10.0,Calm,Calm,-,0.00,,Overcast,0,2012-11-04 10:53:00
3:53 AM,55.9,55.9,100,30.21,9.0,Calm,Calm,-,N/A,,Overcast,0,2012-11-04 11:53:00
4:53 AM,57.0,55.9,96,30.22,7.0,Calm,Calm,-,0.00,,Overcast,0,2012-11-04 12:53:00
5:53 AM,57.0,55.9,96,30.22,10.0,Calm,Calm,-,0.01,,Overcast,0,2012-11-04 13:53:00
6:53 AM,57.0,55.9,96,30.24,10.0,Calm,Calm,-,N/A,,Overcast,0,2012-11-04 14:53:00
7:40 AM,57.2,55.4,94,30.26,8.0,Calm,Calm,-,N/A,,Overcast,0,2012-11-04 15:40:00
7:51 AM,59.0,55.4,88,30.27,10.0,South,4.6,-,N/A,,Overcast,170,2012-11-04 15:51:00
7:53 AM,59.0,55.9,90,30.27,10.0,South,3.5,-,N/A,,Overcast,180,2012-11-04 15:53:00
8:53 AM,60.1,57.0,90,30.28,10.0,South,4.6,-,N/A,,Overcast,170,2012-11-04 16:53:00
9:53 AM,63.0,57.0,81,30.28,10.0,SSW,6.9,-,N/A,,Overcast,200,2012-11-04 17:53:00
10:53 AM,64.9,57.0,75,30.31,10.0,SSW,5.8,-,N/A,,Overcast,200,2012-11-04 18:53:00
11:53 AM,68.0,57.9,70,30.31,10.0,South,9.2,-,N/A,,Overcast,190,2012-11-04 19:53:00
12:53 PM,70.0,59.0,68,30.30,10.0,South,10.4,-,N/A,,Mostly Cloudy,180,2012-11-04 20:53:00
1:53 PM,69.1,59.0,70,30.30,4.0,WSW,5.8,-,N/A,,Haze,250,2012-11-04 21:53:00
2:53 PM,70.0,59.0,68,30.31,10.0,WSW,5.8,-,N/A,,Overcast,240,2012-11-04 22:53:00
3:53 PM,68.0,59.0,73,30.30,10.0,Calm,Calm,-,N/A,,Overcast,0,2012-11-04 23:53:00
4:53 PM,66.0,60.1,81,30.30,10.0,Calm,Calm,-,N/A,,Mostly Cloudy,0,2012-11-05 00:53:00
5:53 PM,62.1,60.1,93,30.32,8.0,Calm,Calm,-,N/A,,Clear,0,2012-11-05 01:53:00
6:53 PM,61.0,59.0,93,30.32,10.0,Calm,Calm,-,N/A,,Clear,0,2012-11-05 02:53:00
7:53 PM,57.9,57.9,100,30.32,10.0,SSE,4.6,-,N/A,,Clear,160,2012-11-05 03:53:00
8:53 PM,60.1,57.9,93,30.33,10.0,South,4.6,-,N/A,,Overcast,190,2012-11-05 04:53:00
9:53 PM,60.1,57.9,93,30.33,10.0,Calm,Calm,-,N/A,,Overcast,0,2012-11-05 05:53:00
10:53 PM,61.0,57.9,90,30.33,10.0,SW,4.6,-,N/A,,Overcast,230,2012-11-05 06:53:00